Owensboro Daviess County Airport
KOWB : now visible

Airfield :











YOU CAN JOIN US ON...

 
LOGIN :

Register | Disclaimer

   EN    FR    IT 

 









Legend :    VFR   Marginal VFR   IFR   Intensive IFR   Very Intensive IFR
Visi :
Ceiling :
>= 8 km
>= 3000ft
5 to 8 km
1000 to 3000 ft
1500m to 5 km
500 to 1000 ft
800 to 1500m
200 to 500 ft
< 800m
< 200 ft
Symbols :   Thunderstorms  Fog  Heavy snow  Heavy precipitations  Wind > 20 kt






- Airport Elevation : 407 ft
- IATA code : OWB


KOWB - Owensboro Daviess County

CURRENT METAR :
  • 041556Z 05004KT 10SM OVC110 00/M05 A3038 RMK AO2 SLP293 T00001050 PNO $

EXPIRED METARs :
  • 041456Z 35004KT 10SM CLR M01/M04 A3041 RMK AO2 SLP303 6//// T10061044 53008 PNO $
  • 041356Z 35003KT 10SM CLR M02/M05 A3039 RMK AO2 SLP297 T10221050 PNO $

TAF KOWB
Valid from the 04 at 12:00 until the 05 at 12:00 UTC


041120Z 0412/0512 VRB02KT P6SM BKN250
FM041700 VRB04KT P6SM FEW200
FM050100 VRB02KT P6SM SCT120
KZID FIR / North America



MET'MAP, your aeronautical weather chart ! - Copyright ORBIFLY December 2007 - Disclaimer

ORBIFLY MET'MAP TEAM :

Programming & Development : Alexandra Zaïnal
Original concept : Baudouin d'Aumeries
Technical & hardware support : Manuel Goepfert
Assistance : Marc-Olivier Méhu




SOURCES & CREDITS :

   NOAA       Earth
Advisory